weather.gov     
National Weather Service

Terminal Aerodrome Forecast
NWS Homepage
This page is being discontinued on March 12, 2014.
The same data is available at this site. Please update your bookmarks.
Thank you, and we apologize for the inconvenience.
Please send an email to SR-SRH.Webmaster@noaa.gov with any concerns.


Current Version
Previous Version:    01  02  03  04  05  06  07  08  09  10  11  12  13  14  15  16  17  18  19  20  21  22  23  24  25  
[Printable]
117
FTUS45 KPUB 251741
TAFPUB
TAF
KPUB 251741Z 2518/2618 VRB06KT P6SM SKC
     FM252100 13010KT P6SM SKC
     FM260200 34007KT P6SM SKC
     FM260900 30010KT P6SM FEW200
     FM261400 27012KT P6SM SCT200=


117
FTUS45 KPUB 251741
TAFPUB
TAF
KPUB 251741Z 2518/2618 VRB06KT P6SM SKC
     FM252100 13010KT P6SM SKC
     FM260200 34007KT P6SM SKC
     FM260900 30010KT P6SM FEW200
     FM261400 27012KT P6SM SCT200=




U.S. Dept. of Commerce
NOAA National Weather Service
1325 East West Highway
Silver Spring, MD 20910
E-mail: w-nws.webmaster@noaa.gov
Page last modified: May 16, 2007
NATIONAL WEATHER SERVICE: for Safety, for Work, for Fun - FOR LIFE